Regional Weather Roundup
Issued by NWS

Home | Current Version | Previous Version | Graphics & Text | Print | Product List | Glossary On
Versions: 1 2 3 4 5 6 7 8 9 10 11 12 13 14 15 16 17 18 19 20 21 22 23 24 25 26 27 28 29 30 31 32 33 34 35 36 37 38 39 40 41 42 43 44 45 46 47 48 49 50
710
ASUS45 KABQ 170310
RWRNM
NEW MEXICO REGIONAL WEATHER ROUNDUP
NATIONAL WEATHER SERVICE ALBUQUERQUE NM
800 PM MST TUE JAN 16 2018

NOTE: "FAIR" MEANS FEW OR NO CLOUDS BELOW 12,000 FEET AGL WITH NO
       SIGNIFICANT WEATHER OR OBSTRUCTIONS TO VISION.

      THIS PRODUCT IS RELEASED AS TWO VERSIONS.  ONE VERSION NEAR
      THE TOP OF THE HOUR CONTAINING PRELIMINARY DATA FROM ALBUQUERQUE
      AND OTHER STATIONS.  A FINAL VERSION WITH ADDITIONAL DATA IS
      ISSUED ABOUT 10 MINUTES AFTER THE HOUR.

NMZ501-503-504-510>518-170400-
NORTHWEST PLATEAU/NORTHCENTRAL MOUNTAINS

CITY           SKY/WX    TMP DP  RH WIND       PRES   REMARKS
FARMINGTON     FAIR      26  17  68 NE5       30.32S WCI  20
LOS ALAMOS     FAIR      25  15  66 SW5       30.35S WCI  19
SANTA FE       FAIR      23  13  65 CALM      30.36R
TAOS           FAIR      17   9  70 E5        30.37S WCI  10
ANGEL FIRE     FAIR      17   9  72 CALM      30.32S

$$
NMZ402-403-502-505>509-170400-
WESTCENTRAL MOUNTAINS/SOUTHWEST MOUNTAINS

CITY           SKY/WX    TMP DP  RH WIND       PRES   REMARKS
GALLUP         FAIR      30  18  60 E3        30.32R
GRANTS         FAIR      24  14  63 S7        30.37R WCI  16
SILVER CITY    FAIR      27   8  45 SE5       30.38R WCI  21

$$
NMZ407-409-411-412-170400-
SOUTHERN DESERTS

CITY           SKY/WX    TMP DP  RH WIND       PRES   REMARKS
DEMING         FAIR      28   8  43 NE6       30.40R WCI  22
LAS CRUCES     FAIR      30   8  40 SE8       30.42S WCI  23
HOLLOMAN AFB   FAIR      29   4  34 SE9       30.46R WCI  21
ALAMOGORDO     FAIR      27   1  33 S6        30.45R WCI  20
T OR C         FAIR      37  14  38 SW3       30.39R

$$
NMZ519>523-170400-
CENTRAL VALLEYS/CENTRAL HIGHLANDS

CITY           SKY/WX    TMP DP  RH WIND       PRES   REMARKS
ALBUQUERQUE    FAIR      32  18  56 NE3       30.39R
DOUBLE EAGLE   CLEAR     18  10  73 NW3       30.39R
MORIARTY ARPT  FAIR      17   6  63 NW6       30.38R WCI   8
CLINES CORNERS FAIR      21  10  62 SE6       30.35S WCI  13
BELEN          FAIR      24  11  58 N3        30.40R
SOCORRO        FAIR      29  10  45 S6        30.40R WCI  23

$$
NMZ524>526-539-540-170400-
SOUTHCENTRAL MOUNTAINS

CITY           SKY/WX    TMP DP  RH WIND       PRES   REMARKS
RUIDOSO        FAIR      18   0  45 S3        30.38S

$$
NMZ527>531-170400-
NORTHEAST HIGHLANDS/NORTHEAST PLAINS

CITY           SKY/WX    TMP DP  RH WIND       PRES   REMARKS
LAS VEGAS      FAIR      18  14  84 S6        30.35S WCI  10
RATON          FAIR      16  11  80 NE6       30.35S WCI   7
CLAYTON        FAIR      16   7  67 SW5       30.38S WCI   9

$$
NMZ532>537-170400-
EASTCENTRAL PLAINS

CITY           SKY/WX    TMP DP  RH WIND       PRES   REMARKS
SANTA ROSA     FAIR      23   6  47 S7        30.44R WCI  14
TUCUMCARI      FAIR      23   9  55 SW10      30.42F WCI  12
CANNON AFB     FAIR      17   4  57 S7        30.49R WCI   8
CLOVIS AIRPORT FAIR      14   2  58 S5        30.49S WCI   6

$$
NMZ028-029-538-170400-
SOUTHEAST PLAINS

CITY           SKY/WX    TMP DP  RH WIND       PRES   REMARKS
ROSWELL        FAIR      24   1  36 S10       30.51R WCI  14
ARTESIA        FAIR      21   0  39 S8        30.54S WCI  12
CARLSBAD       FAIR      24   1  36 S9        30.54S WCI  14
HOBBS          CLOUDY    19  -2  38 S6        30.54R WCI  11


$$




USA.gov is the U.S. government's official web portal to all federal, state and local government web resources and services.